Regional Weather Roundup
Issued by NWS Cleveland, OH

Home | Current Version | Previous Version | Graphics & Text | Print | Product List | Glossary On
Versions: 1 2 3 4 5 6 7 8 9 10 11 12 13 14 15 16 17 18 19 20 21 22 23 24 25 26 27 28 29 30 31 32 33 34 35 36 37 38 39 40 41 42 43 44 45 46 47 48 49 50
000
ASUS41 KCLE 230610
RWRCLE
OHIO REGIONAL WEATHER ROUNDUP
NATIONAL WEATHER SERVICE CLEVELAND, OH
200 AM EDT WED APR 23 2014

NOTE: "FAIR" INDICATES FEW OR NO CLOUDS BELOW 12,000 FEET WITH NO
SIGNIFICANT WEATHER AND/OR OBSTRUCTIONS TO VISIBILITY.

OHZ001>008-015>018-024>027-034-035-043-044-230700-
   NORTHWEST OHIO

CITY           SKY/WX    TMP DP  RH WIND       PRES   REMARKS
DEFIANCE       FAIR      39  28  64 N9        29.99R
FINDLAY        FAIR      40  29  64 NW9       29.95R
TOLEDO EXPRESS FAIR      41  27  57 NW13G21   29.96S
TOLEDO EXEC    MOCLDY    42  28  57 NW13      29.98R
LIMA           FAIR      38  30  73 NW6       29.96R
$$

OHZ009>014-019>023-028>033-038-089-230700-
   NORTHEAST OHIO

CITY           SKY/WX    TMP DP  RH WIND       PRES   REMARKS
CLE-HOPKINS    CLOUDY    43  32  65 NW14      29.94R
CLE-LAKEFRONT  CLOUDY    41  35  79 NW18      29.89R
CUY CO. ARPT   NOT AVBL
LORAIN-ELYRIA  CLOUDY    44  32  62 N12       29.92S
ASHTABULA      CLOUDY    38  33  82 NW15G23   29.87S
AKRON-CANTON   CLOUDY    42  32  67 N15       29.88R
WOOSTER        CLOUDY    42  31  64 NW13      29.90S
MANSFIELD      CLOUDY    42  31  64 NW13G22   29.91R
YOUNGSTOWN     CLOUDY    38  33  82 NW14G20   29.86R
$$

OHZ042-051>053-060>062-070>072-077>081-230700-
  SOUTHWEST OHIO

CITY           SKY/WX    TMP DP  RH WIND       PRES   REMARKS
CINC-COVINGTON FAIR      44  31  60 N6        29.98S
CINC-LUNKEN    FAIR      44  31  60 CALM      30.00R
HAMILTON       FAIR      44  33  65 W6        30.00R
DAYTON         FAIR      40  31  70 NW8       29.98S
WRIGHT-PAT AFB FAIR      43  32  65 NW10      29.96S
DAYTON GENERAL FAIR      43  31  62 NW7       29.96S
WILMINGTON     FAIR      42  29  59 NW8       29.95S
$$

OHZ036-037-039>041-045>050-054>059-063>069-073>076-082>088-230700-
  CENTRAL AND SOUTHEAST OHIO

CITY           SKY/WX    TMP DP  RH WIND       PRES   REMARKS
COLUMBUS       MOCLDY    46  31  55 NW12      29.93R
OSU AIRPORT    FAIR      42  31  64 NW10      29.94R
BOLTON FIELD   FAIR      41  33  73 NW8       29.95R
RICKENBACK AFB FAIR      46  29  53 NW14      29.94R
NEWARK         CLOUDY    45  32  60 NW13      29.91R
MARION         CLOUDY    42  32  67 NW7       29.94R
LANCASTER      FAIR      45  32  60 N12       29.93R
ZANESVILLE     FAIR      45  32  60 NW12      29.89R
NEW PHILLY     CLOUDY    45  32  60 N14       29.89R
$$



USA.gov is the U.S. government's official web portal to all federal, state and local government web resources and services.